| time (UTC) | temp C | wind direction | speed KPH | gust KPH | rain 1hr cm | rain 24hr cm | rain mn cm | humidity % | barometer mb |
| 20260906051814 | 18 | 80 | 11.3 | 0.0 | 0.00 | 0.00 | 0.00 | 64 | 1019.0 |
| 20260906050429 | 18 | 80 | 11.3 | 0.0 | 0.00 | 0.00 | 0.00 | 64 | |
| 20260906044929 | 17 | 90 | 11.3 | 0.0 | 0.00 | 0.00 | 0.00 | 64 | 1019.0 |
| 20260906043418 | 17 | 70 | 11.3 | 0.0 | 0.00 | 0.00 | 0.00 | 64 | 1018.0 |
| 20260906041930 | 17 | 70 | 11.3 | 0.0 | 0.00 | 0.00 | 0.00 | 64 | 1018.0 |
| 20260906040334 | 17 | 70 | 11.3 | 0.0 | 0.00 | 0.00 | 0.00 | 64 | 1018.0 |
| 20260906034829 | 17 | 80 | 16.1 | 0.0 | 0.00 | 0.00 | 0.00 | 64 | 1018.0 |
| 20260906033430 | 18 | 60 | 14.5 | 0.0 | 0.00 | 0.00 | 0.00 | 64 | 1018.0 |
| 20260906031929 | 18 | 60 | 14.5 | 0.0 | 0.00 | 0.00 | 0.00 | 64 | 1018.0 |
| 20260906030429 | 18 | 60 | 14.5 | 0.0 | 0.00 | 0.00 | 0.00 | 64 | 1018.0 |
| 20260906024841 | 18 | 70 | 17.7 | 0.0 | 0.00 | 0.00 | 0.00 | 64 | 1017.0 |
| 20260906023314 | 18 | 70 | 17.7 | 0.0 | 0.00 | 0.00 | 0.00 | 64 | 1017.0 |
| 20260906021821 | 18 | 70 | 17.7 | 0.0 | 0.00 | 0.00 | 0.00 | 68 | 1017.0 |
| 20260906020315 | 18 | 70 | 17.7 | 0.0 | 0.00 | 0.00 | 0.00 | 68 | 1017.0 |
| 20260906014815 | 20 | 70 | 16.1 | 0.0 | 0.00 | 0.00 | 0.00 | 69 | 1016.0 |
| 20260906013429 | 20 | 70 | 16.1 | 0.0 | 0.00 | 0.00 | 0.00 | 69 | 1016.0 |
| 20260906011814 | 20 | 60 | 20.9 | 0.0 | 0.00 | 0.00 | 0.00 | 64 | 1016.0 |
| 20260906010314 | 20 | 60 | 20.9 | 0.0 | 0.00 | 0.00 | 0.00 | 64 | 1016.0 |
| 20260906004930 | 21 | 70 | 22.5 | 0.0 | 0.00 | 0.00 | 0.00 | 60 | 1015.0 |
| 20260906003440 | 21 | 70 | 22.5 | 0.0 | 0.00 | 0.00 | 0.00 | 60 | 1015.0 |
| 20260906001929 | 21 | 70 | 20.9 | 0.0 | 0.00 | 0.00 | 0.00 | 60 | 1015.0 |
| 20260906000419 | 21 | 70 | 20.9 | 0.0 | 0.00 | 0.00 | 0.00 | 60 | 1015.0 |
| 20260905234824 | 21 | 80 | 16.1 | 0.0 | 0.00 | 0.00 | 0.00 | 64 | 1015.0 |
| 20260905233314 | 21 | 80 | 16.1 | 0.0 | 0.00 | 0.00 | 0.00 | 64 | 1015.0 |
| 20260905231930 | 21 | 70 | 17.7 | 0.0 | 0.00 | 0.00 | 0.00 | 64 | 1015.0 |
| 20260905230346 | 21 | 70 | 17.7 | 0.0 | 0.00 | 0.00 | 0.00 | 64 | 1015.0 |
| 20260905224930 | 22 | 30 | 4.8 | 0.0 | 0.00 | 0.00 | 0.00 | 57 | 1015.0 |
| 20260905223328 | 22 | 30 | 4.8 | 0.0 | 0.00 | 0.00 | 0.00 | 57 | 1015.0 |
| 20260905221915 | 22 | 3.2 | 0.0 | 0.00 | 0.00 | 0.00 | 57 | 1014.0 | |
| 20260905220430 | 22 | 3.2 | 0.0 | 0.00 | 0.00 | 0.00 | 57 | 1014.0 | |
| 20260905214929 | 22 | 1.6 | 0.0 | 0.00 | 0.00 | 0.00 | 65 | 1014.0 | |
| 20260905213314 | 22 | 1.6 | 0.0 | 0.00 | 0.00 | 0.00 | 65 | 1014.0 | |
| 20260905211814 | 22 | 270 | 3.2 | 0.0 | 0.00 | 0.00 | 0.00 | 65 | 1014.0 |
| 20260905210314 | 22 | 270 | 3.2 | 0.0 | 0.00 | 0.00 | 0.00 | 65 | 1014.0 |
| 20260905204824 | 22 | 290 | 1.6 | 0.0 | 0.00 | 0.00 | 0.00 | 65 | 1014.0 |
| 20260905203314 | 22 | 290 | 1.6 | 0.0 | 0.00 | 0.00 | 0.00 | 65 | 1014.0 |
| 20260905201814 | 22 | 280 | 1.6 | 0.0 | 0.00 | 0.00 | 0.00 | 65 | 1014.0 |
| 20260905200430 | 22 | 280 | 1.6 | 0.0 | 0.00 | 0.00 | 0.00 | 65 | 1014.0 |
| 20260905194921 | 22 | 0 | 0.0 | 0.0 | 0.00 | 0.00 | 0.00 | 61 | 1014.0 |
| 20260905193314 | 22 | 0 | 0.0 | 0.0 | 0.00 | 0.00 | 0.00 | 61 | 1014.0 |
| 20260905191843 | 25 | 0 | 0.0 | 0.0 | 0.00 | 0.00 | 0.00 | 47 | 1014.0 |
| 20260905190315 | 25 | 0 | 0.0 | 0.0 | 0.00 | 0.00 | 0.00 | 47 | 1014.0 |
| 20260905184815 | 25 | 0 | 0.0 | 0.0 | 0.00 | 0.00 | 0.00 | 51 | 1014.0 |
| 20260905183319 | 25 | 0 | 0.0 | 0.0 | 0.00 | 0.00 | 0.00 | 51 | 1014.0 |
| 20260905181814 | 27 | 0 | 0.0 | 0.0 | 0.00 | 0.00 | 0.00 | 45 | 1014.0 |
| 20260905180314 | 27 | 0 | 0.0 | 0.0 | 0.00 | 0.00 | 0.00 | 45 | 1014.0 |
| 20260905174814 | 27 | 230 | 3.2 | 0.0 | 0.00 | 0.00 | 0.00 | 40 | 1014.0 |
| 20260905173314 | 27 | 230 | 3.2 | 0.0 | 0.00 | 0.00 | 0.00 | 40 | 1014.0 |
| 20260905171825 | 28 | 210 | 4.8 | 0.0 | 0.00 | 0.00 | 0.00 | 37 | 1013.0 |
| 20260905170314 | 28 | 210 | 4.8 | 0.0 | 0.00 | 0.00 | 0.00 | 37 | 1013.0 |
| 20260905164814 | 31 | 260 | 4.8 | 0.0 | 0.00 | 0.00 | 0.00 | 31 | 1013.0 |
| 20260905163315 | 31 | 260 | 4.8 | 0.0 | 0.00 | 0.00 | 0.00 | 31 | 1013.0 |
| 20260905161815 | 32 | 280 | 9.7 | 0.0 | 0.00 | 0.00 | 0.00 | 29 | 1013.0 |
| 20260905160315 | 32 | 280 | 9.7 | 0.0 | 0.00 | 0.00 | 0.00 | 29 | 1013.0 |
| 20260905154831 | 32 | 270 | 8.0 | 0.0 | 0.00 | 0.00 | 0.00 | 29 | 1014.0 |
| 20260905153314 | 32 | 270 | 8.0 | 0.0 | 0.00 | 0.00 | 0.00 | 29 | 1014.0 |
| 20260905151815 | 32 | 280 | 8.0 | 0.0 | 0.00 | 0.00 | 0.00 | 28 | 1014.0 |
| 20260905150315 | 32 | 280 | 8.0 | 0.0 | 0.00 | 0.00 | 0.00 | 28 | 1014.0 |
| 20260905144814 | 32 | 260 | 12.9 | 0.0 | 0.00 | 0.00 | 0.00 | 28 | 1014.0 |
| 20260905143314 | 32 | 260 | 12.9 | 0.0 | 0.00 | 0.00 | 0.00 | 28 | 1014.0 |
| 20260905141815 | 32 | 260 | 12.9 | 0.0 | 0.00 | 0.00 | 0.00 | 28 | 1014.0 |
| 20260905140314 | 32 | 260 | 12.9 | 0.0 | 0.00 | 0.00 | 0.00 | 28 | 1014.0 |
| 20260905134927 | 32 | 250 | 12.9 | 0.0 | 0.00 | 0.00 | 0.00 | 28 | 1014.0 |
| 20260905133314 | 32 | 250 | 12.9 | 0.0 | 0.00 | 0.00 | 0.00 | 28 | 1014.0 |
| 20260905131817 | 32 | 260 | 16.1 | 0.0 | 0.00 | 0.00 | 0.00 | 30 | 1014.0 |
| 20260905130336 | 32 | 260 | 16.1 | 0.0 | 0.00 | 0.00 | 0.00 | 30 | 1014.0 |
| 20260905124815 | 32 | 260 | 16.1 | 0.0 | 0.00 | 0.00 | 0.00 | 29 | 1015.0 |
| 20260905123315 | 32 | 260 | 16.1 | 0.0 | 0.00 | 0.00 | 0.00 | 29 | 1015.0 |
| 20260905121842 | 32 | 240 | 16.1 | 0.0 | 0.00 | 0.00 | 0.00 | 29 | 1015.0 |
| 20260905120315 | 32 | 240 | 16.1 | 0.0 | 0.00 | 0.00 | 0.00 | 29 | 1015.0 |
| 20260905114814 | 32 | 260 | 12.9 | 0.0 | 0.00 | 0.00 | 0.00 | 29 | 1016.0 |
| 20260905113314 | 32 | 260 | 12.9 | 0.0 | 0.00 | 0.00 | 0.00 | 29 | 1016.0 |
| 20260905111833 | 31 | 260 | 14.5 | 0.0 | 0.00 | 0.00 | 0.00 | 31 | 1016.0 |
| 20260905110314 | 31 | 260 | 14.5 | 0.0 | 0.00 | 0.00 | 0.00 | 31 | 1016.0 |
| 20260905104814 | 31 | 270 | 16.1 | 0.0 | 0.00 | 0.00 | 0.00 | 33 | 1016.0 |
| 20260905103314 | 31 | 270 | 16.1 | 0.0 | 0.00 | 0.00 | 0.00 | 33 | 1016.0 |
| 20260905101814 | 30 | 260 | 14.5 | 0.0 | 0.00 | 0.00 | 0.00 | 33 | 1016.0 |
| 20260905100315 | 30 | 260 | 14.5 | 0.0 | 0.00 | 0.00 | 0.00 | 33 | 1016.0 |
| 20260905094930 | 30 | 280 | 12.9 | 0.0 | 0.00 | 0.00 | 0.00 | 33 | 1016.0 |
| 20260905093314 | 30 | 280 | 12.9 | 0.0 | 0.00 | 0.00 | 0.00 | 33 | 1016.0 |
| 20260905091814 | 28 | 280 | 12.9 | 0.0 | 0.00 | 0.00 | 0.00 | 37 | 1016.0 |
| 20260905090314 | 28 | 280 | 12.9 | 0.0 | 0.00 | 0.00 | 0.00 | 37 | 1016.0 |
| 20260905084814 | 27 | 280 | 11.3 | 0.0 | 0.00 | 0.00 | 0.00 | 42 | 1017.0 |
| 20260905083314 | 27 | 280 | 11.3 | 0.0 | 0.00 | 0.00 | 0.00 | 42 | 1017.0 |
| 20260905081814 | 27 | 260 | 12.9 | 0.0 | 0.00 | 0.00 | 0.00 | 45 | 1017.0 |
| 20260905080315 | 27 | 260 | 12.9 | 0.0 | 0.00 | 0.00 | 0.00 | 45 | 1017.0 |
| 20260905074814 | 25 | 9.7 | 0.0 | 0.00 | 0.00 | 0.00 | 47 | 1017.0 | |
| 20260905073323 | 25 | 9.7 | 0.0 | 0.00 | 0.00 | 0.00 | 47 | 1017.0 | |
| 20260905071815 | 22 | 270 | 11.3 | 0.0 | 0.00 | 0.00 | 0.00 | 57 | 1017.0 |
| 20260905070314 | 22 | 270 | 11.3 | 0.0 | 0.00 | 0.00 | 0.00 | 57 | 1017.0 |
| 20260905064815 | 22 | 270 | 11.3 | 0.0 | 0.00 | 0.00 | 0.00 | 61 | 1017.0 |
| 20260905063315 | 22 | 270 | 11.3 | 0.0 | 0.00 | 0.00 | 0.00 | 61 | 1017.0 |
| 20260905061815 | 20 | 270 | 8.0 | 0.0 | 0.00 | 0.00 | 0.00 | 69 | 1016.0 |
| 20260905060315 | 20 | 270 | 8.0 | 0.0 | 0.00 | 0.00 | 0.00 | 69 | 1016.0 |
| 20260905054815 | 18 | 280 | 4.8 | 0.0 | 0.00 | 0.00 | 0.00 | 73 | 1016.0 |
| 20260905053315 | 18 | 280 | 4.8 | 0.0 | 0.00 | 0.00 | 0.00 | 73 | 1016.0 |